This is the latest recevied weather packets stored in our database for station/object KD2ZLA. If no packets are shown the sender has not sent any weather packets the latest 10 day(s).
| Time | Temp. | Humidity | Pressure | Rain* | Wind** | Luminosity | Snow |
|---|---|---|---|---|---|---|---|
| 1777494577 | 12.78° C | 85% | 1007.9 hPa | 0.51 mm | - | 37 W/m² | - |
| 1777494275 | 12.78° C | 85% | 1008 hPa | 0 mm | - | 32 W/m² | - |
| 1777493971 | 12.78° C | 84% | 1007.8 hPa | 0 mm | - | 26 W/m² | - |
| 1777493669 | 13.33° C | 84% | 1008.1 hPa | 0 mm | - | 37 W/m² | - |
| 1777493366 | 13.33° C | 83% | 1008 hPa | 0 mm | - | 54 W/m² | - |
| 1777493062 | 13.33° C | 82% | 1007.9 hPa | 0 mm | - | 77 W/m² | - |
| 1777492760 | 13.89° C | 81% | 1007.9 hPa | 0 mm | - | 121 W/m² | - |
| 1777492455 | 13.89° C | 80% | 1008 hPa | 0 mm | - | 214 W/m² | - |
| 1777492152 | 13.89° C | 79% | 1008.3 hPa | 0 mm | - | 142 W/m² | - |
| 1777491849 | 13.89° C | 77% | 1008.1 hPa | 0 mm | - | 107 W/m² | - |
| 1777491545 | 13.89° C | 77% | 1008.2 hPa | 0 mm | - | 92 W/m² | - |
| 1777491243 | 13.89° C | 76% | 1008.3 hPa | 0 mm | - | 97 W/m² | - |
| 1777490938 | 14.44° C | 75% | 1008.4 hPa | 0 mm | - | 103 W/m² | - |
| 1777490634 | 14.44° C | 76% | 1008.3 hPa | 0 mm | - | 147 W/m² | - |
| 1777490330 | 14.44° C | 75% | 1008.4 hPa | 0 mm | - | 154 W/m² | - |
| 1777490029 | 15° C | 74% | 1008.5 hPa | 0 mm | - | 173 W/m² | - |
| 1777489726 | 15° C | 74% | 1008.6 hPa | 0 mm | - | 206 W/m² | - |
| 1777489423 | 14.44° C | 74% | 1008.3 hPa | 0 mm | - | 188 W/m² | - |
| 1777489120 | 14.44° C | 74% | 1008.5 hPa | 0 mm | - | 177 W/m² | - |
| 1777488817 | 14.44° C | 73% | 1008.7 hPa | 0 mm | - | 177 W/m² | - |
| 1777488514 | 14.44° C | 73% | 1009.1 hPa | 0 mm | - | 140 W/m² | - |
| 1777488212 | 15° C | 72% | 1009.2 hPa | 0 mm | - | 114 W/m² | - |
| 1777487910 | 15° C | 72% | 1009.3 hPa | 0 mm | - | 76 W/m² | - |
| 1777487607 | 15° C | 71% | 1009.4 hPa | 0 mm | - | 60 W/m² | - |
| 1777487305 | 15° C | 71% | 1009.5 hPa | 0 mm | - | 66 W/m² | - |
* Rain latest hour (hover to see other rain measurements)
** Current wind speed in m/s (hover to see current wind gust speed)